Year,Month,Day,Hour,Minute,Value (Times are PST for temperature in C)
2020,08,12,00,00,13.40
2020,08,12,00,01,13.40
2020,08,12,00,02,13.40
2020,08,12,00,03,13.40
2020,08,12,00,04,13.40
2020,08,12,00,05,13.40
2020,08,12,00,06,13.30
2020,08,12,00,07,13.30
2020,08,12,00,08,13.20
2020,08,12,00,09,13.20
2020,08,12,00,10,13.20
2020,08,12,00,11,13.20
2020,08,12,00,12,13.20
2020,08,12,00,13,13.10
2020,08,12,00,14,13.10
2020,08,12,00,15,13.10
2020,08,12,00,16,13.10
2020,08,12,00,17,13.00
2020,08,12,00,18,13.00
2020,08,12,00,19,13.00
2020,08,12,00,20,13.00
2020,08,12,00,21,13.00
2020,08,12,00,22,12.90
2020,08,12,00,23,12.90
2020,08,12,00,24,12.90
2020,08,12,00,25,12.80
2020,08,12,00,26,12.80
2020,08,12,00,27,12.80
2020,08,12,00,28,12.70
2020,08,12,00,29,12.70
2020,08,12,00,30,12.60
2020,08,12,00,31,12.60
2020,08,12,00,32,12.50
2020,08,12,00,33,12.40
2020,08,12,00,34,12.30
2020,08,12,00,35,12.30
2020,08,12,00,36,12.20
2020,08,12,00,37,12.10
2020,08,12,00,38,12.00
2020,08,12,00,39,12.00
2020,08,12,00,40,11.90
2020,08,12,00,41,11.80
2020,08,12,00,42,11.80
2020,08,12,00,43,11.80
2020,08,12,00,44,11.70
2020,08,12,00,45,11.60
2020,08,12,00,46,11.60
2020,08,12,00,47,11.50
2020,08,12,00,48,11.40
2020,08,12,00,49,11.40
2020,08,12,00,50,11.30
2020,08,12,00,51,11.30
2020,08,12,00,52,11.30
2020,08,12,00,53,11.20
2020,08,12,00,54,11.20
2020,08,12,00,55,11.20
2020,08,12,00,56,11.20
2020,08,12,00,57,11.20
2020,08,12,00,58,11.20
2020,08,12,00,59,11.10
2020,08,12,01,00,11.10
2020,08,12,01,01,11.00
2020,08,12,01,02,11.00
2020,08,12,01,03,10.90
2020,08,12,01,04,10.90
2020,08,12,01,05,10.90
2020,08,12,01,06,10.90
2020,08,12,01,07,10.90
2020,08,12,01,08,10.90
2020,08,12,01,09,10.80
2020,08,12,01,10,10.80
2020,08,12,01,11,10.80
2020,08,12,01,12,10.80
2020,08,12,01,13,10.80
2020,08,12,01,14,10.80
2020,08,12,01,15,10.70
2020,08,12,01,16,10.70
2020,08,12,01,17,10.70
2020,08,12,01,18,10.70
2020,08,12,01,19,10.80
2020,08,12,01,20,10.70
2020,08,12,01,21,10.70
2020,08,12,01,22,10.70
2020,08,12,01,23,10.70
2020,08,12,01,24,10.70
2020,08,12,01,25,10.70
2020,08,12,01,26,10.70
2020,08,12,01,27,10.60
2020,08,12,01,28,10.60
2020,08,12,01,29,10.60
2020,08,12,01,30,10.50
2020,08,12,01,31,10.50
2020,08,12,01,32,10.50
2020,08,12,01,33,10.40
2020,08,12,01,34,10.40
2020,08,12,01,35,10.40
2020,08,12,01,36,10.40
2020,08,12,01,37,10.30
2020,08,12,01,38,10.30
2020,08,12,01,39,10.30
2020,08,12,01,40,10.30
2020,08,12,01,41,10.20
2020,08,12,01,42,10.20
2020,08,12,01,43,10.20
2020,08,12,01,44,10.20
2020,08,12,01,45,10.10
2020,08,12,01,46,10.10
2020,08,12,01,47,10.10
2020,08,12,01,48,10.10
2020,08,12,01,49,10.00
2020,08,12,01,50,10.00
2020,08,12,01,51,10.00
2020,08,12,01,52,9.90
2020,08,12,01,53,9.90
2020,08,12,01,54,9.90
2020,08,12,01,55,9.80
2020,08,12,01,56,9.80
2020,08,12,01,57,9.80
2020,08,12,01,58,9.80
2020,08,12,01,59,9.70
2020,08,12,02,00,9.70
2020,08,12,02,01,9.70
2020,08,12,02,02,9.70
2020,08,12,02,03,9.60
2020,08,12,02,04,9.60
2020,08,12,02,05,9.60
2020,08,12,02,06,9.60
2020,08,12,02,07,9.50
2020,08,12,02,08,9.50
2020,08,12,02,09,9.50
2020,08,12,02,10,9.40
2020,08,12,02,11,9.40
2020,08,12,02,12,9.40
2020,08,12,02,13,9.40
2020,08,12,02,14,9.40
2020,08,12,02,15,9.30
2020,08,12,02,16,9.30
2020,08,12,02,17,9.30
2020,08,12,02,18,9.30
2020,08,12,02,19,9.30
2020,08,12,02,20,9.20
2020,08,12,02,21,9.20
2020,08,12,02,22,9.20
2020,08,12,02,23,9.20
2020,08,12,02,24,9.10
2020,08,12,02,25,9.10
2020,08,12,02,26,9.10
2020,08,12,02,27,9.10
2020,08,12,02,28,9.10
2020,08,12,02,29,9.00
2020,08,12,02,30,9.00
2020,08,12,02,31,9.00
2020,08,12,02,32,8.90
2020,08,12,02,33,8.90
2020,08,12,02,34,8.90
2020,08,12,02,35,8.90
2020,08,12,02,36,8.80
2020,08,12,02,37,8.80
2020,08,12,02,38,8.80
2020,08,12,02,39,8.80
2020,08,12,02,40,8.80
2020,08,12,02,41,8.80
2020,08,12,02,42,8.70
2020,08,12,02,43,8.70
2020,08,12,02,44,8.70
2020,08,12,02,45,8.70
2020,08,12,02,46,8.70
2020,08,12,02,47,8.60
2020,08,12,02,48,8.60
2020,08,12,02,49,8.60
2020,08,12,02,50,8.60
2020,08,12,02,51,8.60
2020,08,12,02,52,8.50
2020,08,12,02,53,8.50
2020,08,12,02,54,8.50
2020,08,12,02,55,8.50
2020,08,12,02,56,8.50
2020,08,12,02,57,8.40
2020,08,12,02,58,8.40
2020,08,12,02,59,8.40
2020,08,12,03,00,8.40
2020,08,12,03,01,8.40
2020,08,12,03,02,8.40
2020,08,12,03,03,8.40
2020,08,12,03,04,8.40
2020,08,12,03,05,8.40
2020,08,12,03,06,8.30
2020,08,12,03,07,8.30
2020,08,12,03,08,8.30
2020,08,12,03,09,8.30
2020,08,12,03,10,8.30
2020,08,12,03,11,8.30
2020,08,12,03,12,8.30
2020,08,12,03,13,8.20
2020,08,12,03,14,8.20
2020,08,12,03,15,8.20
2020,08,12,03,16,8.20
2020,08,12,03,17,8.20
2020,08,12,03,18,8.20
2020,08,12,03,19,8.20
2020,08,12,03,20,8.10
2020,08,12,03,21,8.10
2020,08,12,03,22,8.10
2020,08,12,03,23,8.10
2020,08,12,03,24,8.10
2020,08,12,03,25,8.10
2020,08,12,03,26,8.10
2020,08,12,03,27,8.00
2020,08,12,03,28,8.00
2020,08,12,03,29,8.00
2020,08,12,03,30,8.00
2020,08,12,03,31,8.00
2020,08,12,03,32,8.00
2020,08,12,03,33,7.90
2020,08,12,03,34,7.90
2020,08,12,03,35,7.90
2020,08,12,03,36,7.90
2020,08,12,03,37,7.90
2020,08,12,03,38,7.90
2020,08,12,03,39,7.90
2020,08,12,03,40,7.80
2020,08,12,03,41,7.80
2020,08,12,03,42,7.80
2020,08,12,03,43,7.80
2020,08,12,03,44,7.80
2020,08,12,03,45,7.80
2020,08,12,03,46,7.80
2020,08,12,03,47,7.80
2020,08,12,03,48,7.80
2020,08,12,03,49,7.80
2020,08,12,03,50,7.80
2020,08,12,03,51,7.80
2020,08,12,03,52,7.80
2020,08,12,03,53,7.80
2020,08,12,03,54,7.80
2020,08,12,03,55,7.80
2020,08,12,03,56,7.80
2020,08,12,03,57,7.80
2020,08,12,03,58,7.80
2020,08,12,03,59,7.70
2020,08,12,04,00,7.70
2020,08,12,04,01,7.70
2020,08,12,04,02,7.70
2020,08,12,04,03,7.70
2020,08,12,04,04,7.70
2020,08,12,04,05,7.70
2020,08,12,04,06,7.70
2020,08,12,04,07,7.60
2020,08,12,04,08,7.60
2020,08,12,04,09,7.60
2020,08,12,04,10,7.60
2020,08,12,04,11,7.60
2020,08,12,04,12,7.60
2020,08,12,04,13,7.60
2020,08,12,04,14,7.60
2020,08,12,04,15,7.60
2020,08,12,04,16,7.50
2020,08,12,04,17,7.50
2020,08,12,04,18,7.50
2020,08,12,04,19,7.50
2020,08,12,04,20,7.50
2020,08,12,04,21,7.40
2020,08,12,04,22,7.40
2020,08,12,04,23,7.40
2020,08,12,04,24,7.40
2020,08,12,04,25,7.40
2020,08,12,04,26,7.40
2020,08,12,04,27,7.30
2020,08,12,04,28,7.30
2020,08,12,04,29,7.30
2020,08,12,04,30,7.30
2020,08,12,04,31,7.30
2020,08,12,04,32,7.30
2020,08,12,04,33,7.30
2020,08,12,04,34,7.30
2020,08,12,04,35,7.30
2020,08,12,04,36,7.30
2020,08,12,04,37,7.20
2020,08,12,04,38,7.20
2020,08,12,04,39,7.20
2020,08,12,04,40,7.20
2020,08,12,04,41,7.20
2020,08,12,04,42,7.20
2020,08,12,04,43,7.20
2020,08,12,04,44,7.20
2020,08,12,04,45,7.20
2020,08,12,04,46,7.20
2020,08,12,04,47,7.20
2020,08,12,04,48,7.20
2020,08,12,04,49,7.10
2020,08,12,04,50,7.10
2020,08,12,04,51,7.10
2020,08,12,04,52,7.10
2020,08,12,04,53,7.10
2020,08,12,04,54,7.10
2020,08,12,04,55,7.10
2020,08,12,04,56,7.10
2020,08,12,04,57,7.10
2020,08,12,04,58,7.10
2020,08,12,04,59,7.10
2020,08,12,05,00,7.10
2020,08,12,05,01,7.10
2020,08,12,05,02,7.00
2020,08,12,05,03,7.00
2020,08,12,05,04,7.00
2020,08,12,05,05,7.00
2020,08,12,05,06,7.00
2020,08,12,05,07,6.90
2020,08,12,05,08,6.90
2020,08,12,05,09,6.90
2020,08,12,05,10,6.90
2020,08,12,05,11,6.90
2020,08,12,05,12,6.90
2020,08,12,05,13,6.90
2020,08,12,05,14,6.90
2020,08,12,05,15,6.80
2020,08,12,05,16,6.80
2020,08,12,05,17,6.80
2020,08,12,05,18,6.80
2020,08,12,05,19,6.80
2020,08,12,05,20,6.80
2020,08,12,05,21,6.80
2020,08,12,05,22,6.80
2020,08,12,05,23,6.80
2020,08,12,05,24,6.80
2020,08,12,05,25,6.80
2020,08,12,05,26,6.70
2020,08,12,05,27,6.70
2020,08,12,05,28,6.70
2020,08,12,05,29,6.70
2020,08,12,05,30,6.70
2020,08,12,05,31,6.70
2020,08,12,05,32,6.70
2020,08,12,05,33,6.70
2020,08,12,05,34,6.70
2020,08,12,05,35,6.60
2020,08,12,05,36,6.60
2020,08,12,05,37,6.60
2020,08,12,05,38,6.60
2020,08,12,05,39,6.60
2020,08,12,05,40,6.60
2020,08,12,05,41,6.60
2020,08,12,05,42,6.60
2020,08,12,05,43,6.60
2020,08,12,05,44,6.60
2020,08,12,05,45,6.60
2020,08,12,05,46,6.60
2020,08,12,05,47,6.50
2020,08,12,05,48,6.50
2020,08,12,05,49,6.50
2020,08,12,05,50,6.50
2020,08,12,05,51,6.50
2020,08,12,05,52,6.50
2020,08,12,05,53,6.50
2020,08,12,05,54,6.50
2020,08,12,05,55,6.50
2020,08,12,05,56,6.50
2020,08,12,05,57,6.40
2020,08,12,05,58,6.40
2020,08,12,05,59,6.40
2020,08,12,06,00,6.40
2020,08,12,06,01,6.40
2020,08,12,06,02,6.40
2020,08,12,06,03,6.40
2020,08,12,06,04,6.40
2020,08,12,06,05,6.30
2020,08,12,06,06,6.30
2020,08,12,06,07,6.30
2020,08,12,06,08,6.30
2020,08,12,06,09,6.30
2020,08,12,06,10,6.30
2020,08,12,06,11,6.30
2020,08,12,06,12,6.30
2020,08,12,06,13,6.30
2020,08,12,06,14,6.30
2020,08,12,06,15,6.30
2020,08,12,06,16,6.30
2020,08,12,06,17,6.30
2020,08,12,06,18,6.30
2020,08,12,06,19,6.30
2020,08,12,06,20,6.30
2020,08,12,06,21,6.30
2020,08,12,06,22,6.30
2020,08,12,06,23,6.30
2020,08,12,06,24,6.20
2020,08,12,06,25,6.20
2020,08,12,06,26,6.20
2020,08,12,06,27,6.20
2020,08,12,06,28,6.20
2020,08,12,06,29,6.20
2020,08,12,06,30,6.20
2020,08,12,06,31,6.20
2020,08,12,06,32,6.20
2020,08,12,06,33,6.20
2020,08,12,06,34,6.20
2020,08,12,06,35,6.20
2020,08,12,06,36,6.20
2020,08,12,06,37,6.20
2020,08,12,06,38,6.10
2020,08,12,06,39,6.10
2020,08,12,06,40,6.10
2020,08,12,06,41,6.10
2020,08,12,06,42,6.10
2020,08,12,06,43,6.10
2020,08,12,06,44,6.10
2020,08,12,06,45,6.10
2020,08,12,06,46,6.10
2020,08,12,06,47,6.10
2020,08,12,06,48,6.10
2020,08,12,06,49,6.10
2020,08,12,06,50,6.10
2020,08,12,06,51,6.10
2020,08,12,06,52,6.10
2020,08,12,06,53,6.10
2020,08,12,06,54,6.10
2020,08,12,06,55,6.10
2020,08,12,06,56,6.10
2020,08,12,06,57,6.10
2020,08,12,06,58,6.10
2020,08,12,06,59,6.10
2020,08,12,07,00,6.10
2020,08,12,07,01,6.10
2020,08,12,07,02,6.10
2020,08,12,07,03,6.10
2020,08,12,07,04,6.10
2020,08,12,07,05,6.10
2020,08,12,07,06,6.10
2020,08,12,07,07,6.10
2020,08,12,07,08,6.10
2020,08,12,07,09,6.10
2020,08,12,07,10,6.10
2020,08,12,07,11,6.10
2020,08,12,07,12,6.10
2020,08,12,07,13,6.10
2020,08,12,07,14,6.10
2020,08,12,07,15,6.10
2020,08,12,07,16,6.10
2020,08,12,07,17,6.10
2020,08,12,07,18,6.10
2020,08,12,07,19,6.10
2020,08,12,07,20,6.10
2020,08,12,07,21,6.10
2020,08,12,07,22,6.10
2020,08,12,07,23,6.20
2020,08,12,07,24,6.20
2020,08,12,07,25,6.20
2020,08,12,07,26,6.20
2020,08,12,07,27,6.20
2020,08,12,07,28,6.20
2020,08,12,07,29,6.20
2020,08,12,07,30,6.20
2020,08,12,07,31,6.20
2020,08,12,07,32,6.30
2020,08,12,07,33,6.30
2020,08,12,07,34,6.30
2020,08,12,07,35,6.30
2020,08,12,07,36,6.30
2020,08,12,07,37,6.30
2020,08,12,07,38,6.30
2020,08,12,07,39,6.40
2020,08,12,07,40,6.40
2020,08,12,07,41,6.50
2020,08,12,07,42,6.50
2020,08,12,07,43,6.60
2020,08,12,07,44,6.60
2020,08,12,07,45,6.70
2020,08,12,07,46,6.70
2020,08,12,07,47,6.80
2020,08,12,07,48,6.80
2020,08,12,07,49,6.80
2020,08,12,07,50,6.90
2020,08,12,07,51,6.90
2020,08,12,07,52,7.00
2020,08,12,07,53,7.00
2020,08,12,07,54,7.10
2020,08,12,07,55,7.20
2020,08,12,07,56,7.20
2020,08,12,07,57,7.20
2020,08,12,07,58,7.30
2020,08,12,07,59,7.40
2020,08,12,08,00,7.60
2020,08,12,08,01,7.70
2020,08,12,08,02,7.80
2020,08,12,08,03,7.80
2020,08,12,08,04,7.90
2020,08,12,08,05,8.00
2020,08,12,08,06,8.10
2020,08,12,08,07,8.20
2020,08,12,08,08,8.30
2020,08,12,08,09,8.30
2020,08,12,08,10,8.40
2020,08,12,08,11,8.50
2020,08,12,08,12,8.60
2020,08,12,08,13,8.70
2020,08,12,08,14,8.80
2020,08,12,08,15,9.00
2020,08,12,08,16,9.00
2020,08,12,08,17,9.10
2020,08,12,08,18,9.20
2020,08,12,08,19,9.20
2020,08,12,08,20,9.20
2020,08,12,08,21,9.20
2020,08,12,08,22,9.20
2020,08,12,08,23,9.30
2020,08,12,08,24,9.30
2020,08,12,08,25,9.40
2020,08,12,08,26,9.40
2020,08,12,08,27,9.50
2020,08,12,08,28,9.50
2020,08,12,08,29,9.60
2020,08,12,08,30,9.70
2020,08,12,08,31,9.80
2020,08,12,08,32,9.80
2020,08,12,08,33,9.90
2020,08,12,08,34,10.00
2020,08,12,08,35,10.00
2020,08,12,08,36,10.10
2020,08,12,08,37,10.10
2020,08,12,08,38,10.20
2020,08,12,08,39,10.20
2020,08,12,08,40,10.30
2020,08,12,08,41,10.40
2020,08,12,08,42,10.50
2020,08,12,08,43,10.60
2020,08,12,08,44,10.60
2020,08,12,08,45,10.70
2020,08,12,08,46,10.70
2020,08,12,08,47,10.70
2020,08,12,08,48,10.80
2020,08,12,08,49,10.80
2020,08,12,08,50,10.90
2020,08,12,08,51,10.90
2020,08,12,08,52,10.90
2020,08,12,08,53,11.00
2020,08,12,08,54,11.10
2020,08,12,08,55,11.10
2020,08,12,08,56,11.10
2020,08,12,08,57,11.20
2020,08,12,08,58,11.20
2020,08,12,08,59,11.30
2020,08,12,09,00,11.30
2020,08,12,09,01,11.30
2020,08,12,09,02,11.30
2020,08,12,09,03,11.40
2020,08,12,09,04,11.40
2020,08,12,09,05,11.50
2020,08,12,09,06,11.50
2020,08,12,09,07,11.60
2020,08,12,09,08,11.60
2020,08,12,09,09,11.70
2020,08,12,09,10,11.70
2020,08,12,09,11,11.80
2020,08,12,09,12,11.80
2020,08,12,09,13,11.90
2020,08,12,09,14,11.90
2020,08,12,09,15,11.90
2020,08,12,09,16,12.00
2020,08,12,09,17,12.00
2020,08,12,09,18,12.00
2020,08,12,09,19,12.00
2020,08,12,09,20,12.10
2020,08,12,09,21,12.10
2020,08,12,09,22,12.10
2020,08,12,09,23,12.20
2020,08,12,09,24,12.20
2020,08,12,09,25,12.30
2020,08,12,09,26,12.40
2020,08,12,09,27,12.50
2020,08,12,09,28,12.60
2020,08,12,09,29,12.60
2020,08,12,09,30,12.50
2020,08,12,09,31,12.40
2020,08,12,09,32,12.40
2020,08,12,09,33,12.40
2020,08,12,09,34,12.40
2020,08,12,09,35,12.40
2020,08,12,09,36,12.40
2020,08,12,09,37,12.40
2020,08,12,09,38,12.40
2020,08,12,09,39,12.50
2020,08,12,09,40,12.50
2020,08,12,09,41,12.50
2020,08,12,09,42,12.60
2020,08,12,09,43,12.60
2020,08,12,09,44,12.70
2020,08,12,09,45,12.80
2020,08,12,09,46,12.80
2020,08,12,09,47,12.90
2020,08,12,09,48,13.00
2020,08,12,09,49,13.10
2020,08,12,09,50,13.10
2020,08,12,09,51,13.20
2020,08,12,09,52,13.20
2020,08,12,09,53,13.10
2020,08,12,09,54,13.10
2020,08,12,09,55,13.10
2020,08,12,09,56,13.10
2020,08,12,09,57,13.10
2020,08,12,09,58,13.20
2020,08,12,09,59,13.30
2020,08,12,10,00,13.40
2020,08,12,10,01,13.50
2020,08,12,10,02,13.60
2020,08,12,10,03,13.70
2020,08,12,10,04,13.80
2020,08,12,10,05,13.80
2020,08,12,10,06,13.80
2020,08,12,10,07,13.80
2020,08,12,10,08,13.80
2020,08,12,10,09,13.80
2020,08,12,10,10,13.80
2020,08,12,10,11,13.80
2020,08,12,10,12,13.90
2020,08,12,10,13,13.90
2020,08,12,10,14,14.00
2020,08,12,10,15,14.00
2020,08,12,10,16,14.00
2020,08,12,10,17,14.00
2020,08,12,10,18,13.90
2020,08,12,10,19,14.00
2020,08,12,10,20,14.00
2020,08,12,10,21,14.00
2020,08,12,10,22,14.00
2020,08,12,10,23,14.00
2020,08,12,10,24,14.10
2020,08,12,10,25,14.10
2020,08,12,10,26,14.20
2020,08,12,10,27,14.30
2020,08,12,10,28,14.30
2020,08,12,10,29,14.30
2020,08,12,10,30,14.30
2020,08,12,10,31,14.40
2020,08,12,10,32,14.50
2020,08,12,10,33,14.50
2020,08,12,10,34,14.60
2020,08,12,10,35,14.60
2020,08,12,10,36,14.60
2020,08,12,10,37,14.60
2020,08,12,10,38,14.70
2020,08,12,10,39,14.80
2020,08,12,10,40,14.80
2020,08,12,10,41,14.80
2020,08,12,10,42,14.80
2020,08,12,10,43,14.90
2020,08,12,10,44,15.00
2020,08,12,10,45,15.10
2020,08,12,10,46,15.10
2020,08,12,10,47,15.20
2020,08,12,10,48,15.30
2020,08,12,10,49,15.40
2020,08,12,10,50,15.40
2020,08,12,10,51,15.40
2020,08,12,10,52,15.40
2020,08,12,10,53,15.40
2020,08,12,10,54,15.40
2020,08,12,10,55,15.40
2020,08,12,10,56,15.40
2020,08,12,10,57,15.50
2020,08,12,10,58,15.50
2020,08,12,10,59,15.60
2020,08,12,11,00,15.60
2020,08,12,11,01,15.70
2020,08,12,11,02,15.80
2020,08,12,11,03,15.90
2020,08,12,11,04,16.00
2020,08,12,11,05,16.10
2020,08,12,11,06,16.10
2020,08,12,11,07,16.10
2020,08,12,11,08,16.00
2020,08,12,11,09,15.90
2020,08,12,11,10,15.90
2020,08,12,11,11,15.90
2020,08,12,11,12,15.90
2020,08,12,11,13,15.80
2020,08,12,11,14,15.80
2020,08,12,11,15,15.80
2020,08,12,11,16,15.80
2020,08,12,11,17,15.80
2020,08,12,11,18,15.80
2020,08,12,11,19,15.80
2020,08,12,11,20,15.80
2020,08,12,11,21,15.80
2020,08,12,11,22,15.80
2020,08,12,11,23,15.80
2020,08,12,11,24,15.90
2020,08,12,11,25,15.90
2020,08,12,11,26,15.90
2020,08,12,11,27,16.00
2020,08,12,11,28,16.00
2020,08,12,11,29,16.10
2020,08,12,11,30,16.10
2020,08,12,11,31,16.20
2020,08,12,11,32,16.30
2020,08,12,11,33,16.40
2020,08,12,11,34,16.50
2020,08,12,11,35,16.60
2020,08,12,11,36,16.60
2020,08,12,11,37,16.70
2020,08,12,11,38,16.80
2020,08,12,11,39,16.80
2020,08,12,11,40,16.80
2020,08,12,11,41,16.80
2020,08,12,11,42,16.90
2020,08,12,11,43,16.90
2020,08,12,11,44,16.90
2020,08,12,11,45,16.90
2020,08,12,11,46,16.90
2020,08,12,11,47,17.00
2020,08,12,11,48,17.10
2020,08,12,11,49,17.30
2020,08,12,11,50,17.30
2020,08,12,11,51,17.30
2020,08,12,11,52,17.30
2020,08,12,11,53,17.20
2020,08,12,11,54,17.20
2020,08,12,11,55,17.30
2020,08,12,11,56,17.30
2020,08,12,11,57,17.30
2020,08,12,11,58,17.40
2020,08,12,11,59,17.50
2020,08,12,12,00,17.60
2020,08,12,12,01,17.60
2020,08,12,12,02,17.60
2020,08,12,12,03,17.60
2020,08,12,12,04,17.60
2020,08,12,12,05,17.60
2020,08,12,12,06,17.70
2020,08,12,12,07,17.80
2020,08,12,12,08,17.90
2020,08,12,12,09,18.00
2020,08,12,12,10,18.10
2020,08,12,12,11,18.10
2020,08,12,12,12,18.10
2020,08,12,12,13,18.10
2020,08,12,12,14,18.20
2020,08,12,12,15,18.20
2020,08,12,12,16,18.30
2020,08,12,12,17,18.30
2020,08,12,12,18,18.30
2020,08,12,12,19,18.30
2020,08,12,12,20,18.30
2020,08,12,12,21,18.20
2020,08,12,12,22,18.30
2020,08,12,12,23,18.30
2020,08,12,12,24,18.30
2020,08,12,12,25,18.40
2020,08,12,12,26,18.40
2020,08,12,12,27,18.50
2020,08,12,12,28,18.60
2020,08,12,12,29,18.60
2020,08,12,12,30,18.60
2020,08,12,12,31,18.60
2020,08,12,12,32,18.50
2020,08,12,12,33,18.50
2020,08,12,12,34,18.60
2020,08,12,12,35,18.60
2020,08,12,12,36,18.70
2020,08,12,12,37,18.80
2020,08,12,12,38,18.80
2020,08,12,12,39,18.90
2020,08,12,12,40,18.90
2020,08,12,12,41,18.90
2020,08,12,12,42,18.90
2020,08,12,12,43,18.90
2020,08,12,12,44,18.90
2020,08,12,12,45,18.90
2020,08,12,12,46,18.90
2020,08,12,12,47,18.90
2020,08,12,12,48,18.80
2020,08,12,12,49,18.80
2020,08,12,12,50,18.80
2020,08,12,12,51,18.80
2020,08,12,12,52,18.80
2020,08,12,12,53,18.90
2020,08,12,12,54,19.00
2020,08,12,12,55,19.10
2020,08,12,12,56,19.20
2020,08,12,12,57,19.30
2020,08,12,12,58,19.30
2020,08,12,12,59,19.30
2020,08,12,13,00,19.30
2020,08,12,13,01,19.30
2020,08,12,13,02,19.30
2020,08,12,13,03,19.30
2020,08,12,13,04,19.30
2020,08,12,13,05,19.30
2020,08,12,13,06,19.40
2020,08,12,13,07,19.60
2020,08,12,13,08,19.70
2020,08,12,13,09,19.70
2020,08,12,13,10,19.60
2020,08,12,13,11,19.50
2020,08,12,13,12,19.50
2020,08,12,13,13,19.50
2020,08,12,13,14,19.50
2020,08,12,13,15,19.40
2020,08,12,13,16,19.40
2020,08,12,13,17,19.40
2020,08,12,13,18,19.50
2020,08,12,13,19,19.50
2020,08,12,13,20,19.50
2020,08,12,13,21,19.60
2020,08,12,13,22,19.70
2020,08,12,13,23,19.80
2020,08,12,13,24,19.90
2020,08,12,13,25,20.00
2020,08,12,13,26,20.10
2020,08,12,13,27,20.10
2020,08,12,13,28,20.10
2020,08,12,13,29,20.20
2020,08,12,13,30,20.20
2020,08,12,13,31,20.30
2020,08,12,13,32,20.40
2020,08,12,13,33,20.50
2020,08,12,13,34,20.60
2020,08,12,13,35,20.60
2020,08,12,13,36,20.60
2020,08,12,13,37,20.50
2020,08,12,13,38,20.40
2020,08,12,13,39,20.40
2020,08,12,13,40,20.40
2020,08,12,13,41,20.40
2020,08,12,13,42,20.40
2020,08,12,13,43,20.30
2020,08,12,13,44,20.20
2020,08,12,13,45,20.30
2020,08,12,13,46,20.30
2020,08,12,13,47,20.30
2020,08,12,13,48,20.40
2020,08,12,13,49,20.40
2020,08,12,13,50,20.40
2020,08,12,13,51,20.40
2020,08,12,13,52,20.40
2020,08,12,13,53,20.50
2020,08,12,13,54,20.50
2020,08,12,13,55,20.50
2020,08,12,13,56,20.50
2020,08,12,13,57,20.50
2020,08,12,13,58,20.40
2020,08,12,13,59,20.50
2020,08,12,14,00,20.50
2020,08,12,14,01,20.60
2020,08,12,14,02,20.70
2020,08,12,14,03,20.70
2020,08,12,14,04,20.80
2020,08,12,14,05,20.80
2020,08,12,14,06,20.80
2020,08,12,14,07,20.90
2020,08,12,14,08,20.90
2020,08,12,14,09,21.00
2020,08,12,14,10,21.00
2020,08,12,14,11,21.00
2020,08,12,14,12,21.00
2020,08,12,14,13,21.00
2020,08,12,14,14,20.90
2020,08,12,14,15,20.90
2020,08,12,14,16,20.80
2020,08,12,14,17,20.80
2020,08,12,14,18,20.80
2020,08,12,14,19,20.80
2020,08,12,14,20,20.70
2020,08,12,14,21,20.60
2020,08,12,14,22,20.50
2020,08,12,14,23,20.50
2020,08,12,14,24,20.60
2020,08,12,14,25,20.60
2020,08,12,14,26,20.70
2020,08,12,14,27,20.70
2020,08,12,14,28,20.70
2020,08,12,14,29,20.70
2020,08,12,14,30,20.70
2020,08,12,14,31,20.70
2020,08,12,14,32,20.60
2020,08,12,14,33,20.60
2020,08,12,14,34,20.70
2020,08,12,14,35,20.80
2020,08,12,14,36,20.80
2020,08,12,14,37,20.90
2020,08,12,14,38,20.90
2020,08,12,14,39,20.90
2020,08,12,14,40,20.90
2020,08,12,14,41,20.80
2020,08,12,14,42,20.70
2020,08,12,14,43,20.70
2020,08,12,14,44,20.80
2020,08,12,14,45,20.80
2020,08,12,14,46,21.00
2020,08,12,14,47,21.10
2020,08,12,14,48,21.10
2020,08,12,14,49,21.10
2020,08,12,14,50,21.00
2020,08,12,14,51,21.00
2020,08,12,14,52,20.90
2020,08,12,14,53,20.80
2020,08,12,14,54,20.80
2020,08,12,14,55,20.90
2020,08,12,14,56,21.00
2020,08,12,14,57,21.10
2020,08,12,14,58,21.20
2020,08,12,14,59,21.20
2020,08,12,15,00,21.20
2020,08,12,15,01,21.20
2020,08,12,15,02,21.20
2020,08,12,15,03,21.20
2020,08,12,15,04,21.20
2020,08,12,15,05,21.30
2020,08,12,15,06,21.40
2020,08,12,15,07,21.40
2020,08,12,15,08,21.40
2020,08,12,15,09,21.30
2020,08,12,15,10,21.10
2020,08,12,15,11,21.10
2020,08,12,15,12,21.10
2020,08,12,15,13,21.10
2020,08,12,15,14,21.20
2020,08,12,15,15,21.30
2020,08,12,15,16,21.30
2020,08,12,15,17,21.30
2020,08,12,15,18,21.30
2020,08,12,15,19,21.20
2020,08,12,15,20,21.10
2020,08,12,15,21,21.10
2020,08,12,15,22,21.20
2020,08,12,15,23,21.20
2020,08,12,15,24,21.20
2020,08,12,15,25,21.30
2020,08,12,15,26,21.30
2020,08,12,15,27,21.30
2020,08,12,15,28,21.20
2020,08,12,15,29,21.20
2020,08,12,15,30,21.10
2020,08,12,15,31,21.10
2020,08,12,15,32,21.10
2020,08,12,15,33,21.20
2020,08,12,15,34,21.20
2020,08,12,15,35,21.20
2020,08,12,15,36,21.30
2020,08,12,15,37,21.40
2020,08,12,15,38,21.50
2020,08,12,15,39,21.60
2020,08,12,15,40,21.70
2020,08,12,15,41,21.80
2020,08,12,15,42,21.80
2020,08,12,15,43,21.80
2020,08,12,15,44,21.70
2020,08,12,15,45,21.70
2020,08,12,15,46,21.70
2020,08,12,15,47,21.60
2020,08,12,15,48,21.40
2020,08,12,15,49,21.30
2020,08,12,15,50,21.20
2020,08,12,15,51,21.10
2020,08,12,15,52,21.10
2020,08,12,15,53,21.10
2020,08,12,15,54,21.20
2020,08,12,15,55,21.20
2020,08,12,15,56,21.30
2020,08,12,15,57,21.40
2020,08,12,15,58,21.40
2020,08,12,15,59,21.40
2020,08,12,16,00,21.50
2020,08,12,16,01,21.50
2020,08,12,16,02,21.60
2020,08,12,16,03,21.60
2020,08,12,16,04,21.60
2020,08,12,16,05,21.60
2020,08,12,16,06,21.50
2020,08,12,16,07,21.50
2020,08,12,16,08,21.50
2020,08,12,16,09,21.60
2020,08,12,16,10,21.60
2020,08,12,16,11,21.50
2020,08,12,16,12,21.40
2020,08,12,16,13,21.40
2020,08,12,16,14,21.40
2020,08,12,16,15,21.40
2020,08,12,16,16,21.30
2020,08,12,16,17,21.30
2020,08,12,16,18,21.40
2020,08,12,16,19,21.50
2020,08,12,16,20,21.50
2020,08,12,16,21,21.30
2020,08,12,16,22,21.30
2020,08,12,16,23,21.30
2020,08,12,16,24,21.20
2020,08,12,16,25,21.30
2020,08,12,16,26,21.30
2020,08,12,16,27,21.30
2020,08,12,16,28,21.30
2020,08,12,16,29,21.30
2020,08,12,16,30,21.30
2020,08,12,16,31,21.20
2020,08,12,16,32,21.20
2020,08,12,16,33,21.20
2020,08,12,16,34,21.20
2020,08,12,16,35,21.20
2020,08,12,16,36,21.20
2020,08,12,16,37,21.30
2020,08,12,16,38,21.30
2020,08,12,16,39,21.30
2020,08,12,16,40,21.30
2020,08,12,16,41,21.30
2020,08,12,16,42,21.30
2020,08,12,16,43,21.20
2020,08,12,16,44,21.10
2020,08,12,16,45,21.00
2020,08,12,16,46,21.00
2020,08,12,16,47,20.90
2020,08,12,16,48,20.90
2020,08,12,16,49,20.80
2020,08,12,16,50,20.80
2020,08,12,16,51,20.70
2020,08,12,16,52,20.60
2020,08,12,16,53,20.50
2020,08,12,16,54,20.60
2020,08,12,16,55,20.60
2020,08,12,16,56,20.60
2020,08,12,16,57,20.60
2020,08,12,16,58,20.60
2020,08,12,16,59,20.70
2020,08,12,17,00,20.70
2020,08,12,17,01,20.60
2020,08,12,17,02,20.70
2020,08,12,17,03,20.70
2020,08,12,17,04,20.60
2020,08,12,17,05,20.60
2020,08,12,17,06,20.60
2020,08,12,17,07,20.60
2020,08,12,17,08,20.60
2020,08,12,17,09,20.60
2020,08,12,17,10,20.60
2020,08,12,17,11,20.60
2020,08,12,17,12,20.60
2020,08,12,17,13,20.60
2020,08,12,17,14,20.70
2020,08,12,17,15,20.60
2020,08,12,17,16,20.50
2020,08,12,17,17,20.50
2020,08,12,17,18,20.40
2020,08,12,17,19,20.40
2020,08,12,17,20,20.40
2020,08,12,17,21,20.40
2020,08,12,17,22,20.40
2020,08,12,17,23,20.40
2020,08,12,17,24,20.40
2020,08,12,17,25,20.40
2020,08,12,17,26,20.50
2020,08,12,17,27,20.60
2020,08,12,17,28,20.50
2020,08,12,17,29,20.50
2020,08,12,17,30,20.40
2020,08,12,17,31,20.40
2020,08,12,17,32,20.30
2020,08,12,17,33,20.30
2020,08,12,17,34,20.20
2020,08,12,17,35,20.20
2020,08,12,17,36,20.30